When you browse on this site, cookies collect data to enhance your experience and personalize the content and advertising you see.
Visit our Privacy Policy to learn more. By continuing to use the site, you agree to this use of cookies and data.
  • In Hungary
  • List of Countries
  • For 7 days
  • Water Temperature
  • Weather Map
  • News
  • Weather Widgets
  • user-avatar
    Login

    Hourly Weather Trapani

    Today, 11 December, Wednesday

    Time Temperature Precipitation Wind Pressure Humidity
    00:00 +12°C° 0.3 mm 8 mps 756 mmHg 77%
    01:00 +12°C° 0 mm 8 mps 757 mmHg 79%
    02:00 +12°C° 0.4 mm 9 mps 756 mmHg 78%
    03:00 +12°C° 0.4 mm 10 mps 756 mmHg 78%
    04:00 +12°C° 0.4 mm 11 mps 756 mmHg 77%
    05:00 +12°C° 0 mm 11 mps 757 mmHg 77%
    06:00 +12°C° 0 mm 10 mps 757 mmHg 76%
    07:00 +12°C° 0 mm 10 mps 757 mmHg 74%
    08:00 +12°C° 0.1 mm 9 mps 758 mmHg 72%
    09:00 +13°C° 0.1 mm 9 mps 758 mmHg 70%
    10:00 +15°C° 0.1 mm 8 mps 758 mmHg 68%
    11:00 +13°C° 0.1 mm 9 mps 758 mmHg 70%
    12:00 +13°C° 0.1 mm 9 mps 758 mmHg 71%
    13:00 +13°C° 0.1 mm 10 mps 758 mmHg 72%
    14:00 +12°C° 0 mm 10 mps 758 mmHg 72%
    15:00 +12°C° 0 mm 10 mps 758 mmHg 71%
    16:00 +11°C° 0 mm 10 mps 757 mmHg 71%
    17:00 +11°C° 0 mm 9 mps 758 mmHg 71%
    18:00 +11°C° 0 mm 9 mps 758 mmHg 72%
    19:00 +11°C° 0 mm 8 mps 758 mmHg 72%
    20:00 +11°C° 0 mm 8 mps 758 mmHg 72%
    21:00 +10°C° 0 mm 7 mps 758 mmHg 71%
    22:00 +10°C° 0 mm 7 mps 758 mmHg 71%
    23:00 +10°C° 0 mm 6 mps 758 mmHg 69%

    Tomorrow, 12 December, Thursday

    Time Temperature Precipitation Wind Pressure Humidity
    00:00 +10°C° 0 mm 5 mps 758 mmHg 68%
    01:00 +11°C° 0 mm 4 mps 758 mmHg 66%
    02:00 +11°C° 0 mm 4 mps 757 mmHg 68%
    03:00 +12°C° 0 mm 4 mps 756 mmHg 69%
    04:00 +12°C° 0 mm 5 mps 755 mmHg 71%
    05:00 +11°C° 0.5 mm 4 mps 756 mmHg 77%
    06:00 +11°C° 0.5 mm 3 mps 756 mmHg 82%
    07:00 +12°C° 0.5 mm 2 mps 756 mmHg 88%
    08:00 +10°C° 0.7 mm 5 mps 756 mmHg 88%
    09:00 +11°C° 0.7 mm 7 mps 756 mmHg 87%
    10:00 +11°C° 0.7 mm 10 mps 757 mmHg 87%
    11:00 +12°C° 0.1 mm 11 mps 757 mmHg 78%
    12:00 +13°C° 0.1 mm 11 mps 757 mmHg 69%
    13:00 +14°C° 0.1 mm 12 mps 757 mmHg 60%
    14:00 +13°C° 0.5 mm 11 mps 757 mmHg 65%
    15:00 +13°C° 0.5 mm 11 mps 756 mmHg 71%
    16:00 +12°C° 0.5 mm 11 mps 756 mmHg 76%
    17:00 +12°C° 0.1 mm 11 mps 756 mmHg 73%
    18:00 +12°C° 0.1 mm 11 mps 756 mmHg 71%
    19:00 +12°C° 0.1 mm 11 mps 756 mmHg 68%
    20:00 +12°C° 0 mm 10 mps 756 mmHg 69%
    21:00 +12°C° 0 mm 9 mps 756 mmHg 69%
    22:00 +12°C° 0 mm 8 mps 756 mmHg 70%
    23:00 +12°C° 0.2 mm 8 mps 756 mmHg 71%

    Day after tomorrow, 13 December, Friday

    Time Temperature Precipitation Wind Pressure Humidity
    00:00 +12°C° 0.2 mm 8 mps 755 mmHg 73%
    01:00 +11°C° 0.2 mm 8 mps 755 mmHg 75%
    02:00 +11°C° 0.1 mm 8 mps 755 mmHg 76%
    03:00 +11°C° 0.1 mm 8 mps 754 mmHg 77%
    04:00 +11°C° 0.1 mm 8 mps 754 mmHg 78%
    05:00 +11°C° 0.4 mm 8 mps 754 mmHg 79%
    06:00 +11°C° 0.4 mm 8 mps 754 mmHg 79%
    07:00 +12°C° 0.4 mm 8 mps 754 mmHg 80%
    08:00 +12°C° 0.4 mm 9 mps 754 mmHg 78%
    09:00 +13°C° 0.4 mm 9 mps 753 mmHg 76%
    10:00 +13°C° 0.4 mm 9 mps 753 mmHg 74%
    11:00 +13°C° 2 mm 10 mps 752 mmHg 80%
    12:00 +13°C° 2 mm 10 mps 752 mmHg 87%
    13:00 +12°C° 2 mm 11 mps 751 mmHg 94%
    14:00 +13°C° 1.2 mm 11 mps 750 mmHg 91%
    15:00 +13°C° 1.2 mm 11 mps 749 mmHg 88%
    16:00 +14°C° 1.2 mm 11 mps 749 mmHg 85%
    17:00 +14°C° 0.6 mm 12 mps 748 mmHg 84%
    18:00 +15°C° 0.6 mm 12 mps 748 mmHg 84%
    19:00 +15°C° 0.6 mm 13 mps 747 mmHg 84%
    20:00 +15°C° 0.9 mm 14 mps 747 mmHg 81%
    21:00 +14°C° 0.9 mm 14 mps 747 mmHg 78%
    22:00 +14°C° 0.9 mm 15 mps 747 mmHg 75%
    23:00 +13°C° 0.5 mm 16 mps 747 mmHg 71%

    14 December, Saturday

    Time Temperature Precipitation Wind Pressure Humidity
    00:00 +11°C° 0.5 mm 17 mps 747 mmHg 66%
    01:00 +11°C° 0.5 mm 18 mps 747 mmHg 62%
    02:00 +11°C° 0.1 mm 18 mps 747 mmHg 61%
    03:00 +11°C° 0.1 mm 17 mps 747 mmHg 60%
    04:00 +11°C° 0.1 mm 17 mps 748 mmHg 59%
    05:00 +11°C° 0 mm 17 mps 748 mmHg 58%
    06:00 +11°C° 0 mm 16 mps 749 mmHg 58%
    07:00 +13°C° 0 mm 16 mps 750 mmHg 58%
    08:00 +13°C° 0 mm 16 mps 751 mmHg 57%
    09:00 +14°C° 0 mm 16 mps 752 mmHg 57%
    10:00 +14°C° 0 mm 17 mps 753 mmHg 56%
    11:00 +14°C° 0 mm 16 mps 754 mmHg 56%
    12:00 +14°C° 0 mm 15 mps 755 mmHg 56%
    13:00 +15°C° 0 mm 14 mps 755 mmHg 55%
    14:00 +14°C° 0 mm 13 mps 756 mmHg 58%
    15:00 +14°C° 0 mm 12 mps 757 mmHg 61%
    16:00 +14°C° 0 mm 11 mps 757 mmHg 65%
    17:00 +14°C° 0 mm 10 mps 758 mmHg 69%
    18:00 +13°C° 0 mm 9 mps 759 mmHg 74%
    19:00 +13°C° 0 mm 8 mps 760 mmHg 78%
    20:00 +14°C° 0 mm 7 mps 760 mmHg 81%
    21:00 +14°C° 0 mm 7 mps 761 mmHg 83%
    22:00 +15°C° 0 mm 6 mps 761 mmHg 85%
    23:00 +14°C° 0 mm 5 mps 762 mmHg 87%

    15 December, Sunday

    Time Temperature Precipitation Wind Pressure Humidity
    00:00 +14°C° 0 mm 5 mps 762 mmHg 88%
    01:00 +14°C° 0 mm 4 mps 762 mmHg 89%
    02:00 +14°C° 0 mm 4 mps 763 mmHg 89%
    03:00 +14°C° 0 mm 4 mps 763 mmHg 88%
    04:00 +14°C° 0 mm 4 mps 763 mmHg 88%
    05:00 +14°C° 0 mm 4 mps 763 mmHg 88%
    06:00 +14°C° 0 mm 4 mps 763 mmHg 88%
    07:00 +13°C° 0 mm 4 mps 764 mmHg 88%
    08:00 +14°C° 0 mm 4 mps 764 mmHg 87%
    09:00 +15°C° 0 mm 4 mps 765 mmHg 85%
    10:00 +17°C° 0 mm 4 mps 765 mmHg 84%
    11:00 +17°C° 0 mm 4 mps 765 mmHg 82%
    12:00 +17°C° 0 mm 4 mps 765 mmHg 81%
    13:00 +17°C° 0 mm 4 mps 765 mmHg 80%
    14:00 +17°C° 0 mm 4 mps 765 mmHg 81%
    15:00 +17°C° 0 mm 3 mps 765 mmHg 82%
    16:00 +17°C° 0 mm 3 mps 765 mmHg 83%
    17:00 +16°C° 0 mm 3 mps 765 mmHg 86%
    18:00 +16°C° 0 mm 3 mps 765 mmHg 88%
    19:00 +14°C° 0 mm 3 mps 766 mmHg 90%
    20:00 +14°C° 0 mm 3 mps 766 mmHg 90%
    21:00 +14°C° 0 mm 3 mps 766 mmHg 90%
    22:00 +13°C° 0 mm 3 mps 766 mmHg 90%
    23:00 +13°C° 0 mm 3 mps 766 mmHg 88%

    16 December, Monday

    Time Temperature Precipitation Wind Pressure Humidity
    00:00 +13°C° 0 mm 4 mps 766 mmHg 87%
    01:00 +13°C° 0 mm 4 mps 766 mmHg 85%
    02:00 +13°C° 0 mm 5 mps 766 mmHg 84%
    03:00 +13°C° 0 mm 5 mps 766 mmHg 84%
    04:00 +13°C° 0 mm 5 mps 766 mmHg 83%
    05:00 +13°C° 0 mm 6 mps 766 mmHg 84%
    06:00 +13°C° 0 mm 6 mps 766 mmHg 85%
    07:00 +13°C° 0 mm 6 mps 766 mmHg 86%
    08:00 +14°C° 0 mm 7 mps 766 mmHg 84%
    09:00 +15°C° 0 mm 7 mps 766 mmHg 83%
    10:00 +17°C° 0 mm 8 mps 766 mmHg 81%
    11:00 +17°C° 0 mm 9 mps 766 mmHg 80%
    12:00 +17°C° 0 mm 9 mps 765 mmHg 80%
    13:00 +18°C° 0 mm 10 mps 765 mmHg 79%
    14:00 +17°C° 0 mm 9 mps 765 mmHg 81%
    15:00 +17°C° 0 mm 9 mps 765 mmHg 83%
    16:00 +17°C° 0 mm 9 mps 764 mmHg 85%
    17:00 +16°C° 0 mm 9 mps 764 mmHg 86%
    18:00 +16°C° 0 mm 9 mps 764 mmHg 88%
    19:00 +14°C° 0 mm 10 mps 764 mmHg 90%
    20:00 +14°C° 0 mm 10 mps 764 mmHg 90%
    21:00 +14°C° 0 mm 10 mps 764 mmHg 90%
    22:00 +14°C° 0 mm 10 mps 764 mmHg 90%
    23:00 +14°C° 0 mm 11 mps 764 mmHg 90%
    Show more